STARLINK-11590, 63112

Orbit data source: Space-Track

STARLINK-11590, 63112 is a payload satellite owned by SpaceX/Seattle (US) in LEO that was launched on Thu, 27 Feb 2025 UTC via an FALCON 9 launch vehicle from the Air Force Eastern Test Range (AFETR). Payload-class satellites include a variety of spacecraft equipped with specific instruments for various scientific and technological missions. These include communications satellites like Starlink; space stations such as the ISS; scientific satellites like the Hubble; Earth observation satellites from companies like Planet Labs, Umbra, and HawkEye 360; GPS; miniature CubeSats for education and research; and military/defense satellites.

Loading next visibility...
Identifier
63112, 2025-039J
Orbit
LEO
Last TLE update
16 hours ago
Origin
Manufacturer
SpaceX/Seattle
Mission
Operational Commercial Communications
Bus & Motor
STARLINK V2M, Unknown motor
Mass
730 kg wet, ~700 kg dry
Launch date (UTC)
2025-02-27 (4 months ago)
Launch vehicle
FALCON 9
Launch site
Air Force Eastern Test Range (AFETR)
Object type
Payload
Rocket body
Debris
Shape & HBR
Box + 2 Pan, 29 m
Radar Cross Section
36.964 m², Large (>1 m²)

Expand to show TLE details & history

TLE from 16 hours ago
0 STARLINK-11590
1 63112U 25039J   25181.72926085  .00142555  00000-0  10938-2 0  9993
2 63112  43.0027 316.0280 0002690 273.0216  87.0344 15.70875246 19987
Epoch: 2025-06-30T17:30Z
TLE epoch observation values (Epoch: 2025-06-30T17:30:08.137Z)
Latitude
-0.00001°
Longitude
134.4592°
Altitude
356.073 km
Speed
7.697 km/s
True Right ascension
21h 04m 06s
True Declination
0° 00' 00"
Sunlit
Object was in full shadow at epoch
Visualization orbit readout
Latitude
-5.46557°
Longitude
-43.72006°
Altitude
356.485 km
Speed
7.697 km/s
Apparent Right ascension
09h 11m 32s
Apparent Declination
-22° 05' 11"
Sunlit
Object is in daylight
Visualization observer readout
Local Sidereal Time
21:11:43
Azimuth
0.147° NNE
Elevation
-72.17°
Doppler factor
1
Orbital elements
Apogee altitude
360.188 km
Perigee altitude
356.563 km
Semi-major axis
6,736.512 km
Eccentricity
0.00027
Inclination
43.0027°
RAAN
316.028°
Arg. of periapsis
273.0216°
True anomaly
Unknown
Mean anomaly
87.0344°
Eccentric anomaly
Unknown
Mean motion
3.92546 °/min
Orbital period
91.71 mins
BSTAR
0.0010938
Loading maneuver chart data...
Loading SW <> Apogee altitude chart data...
Loading historical data...
Loading historical data...
Loading historical data...
Loading historical data...
Loading historical data...
Loading historical data...
Loading historical data...

STARLINK-11590 Visibility forecast

Observer location: undefined°, undefined°

Span
Click to sort rows by Start time (UTC) header in descending order
Start Az.
Max El. time (UTC)
Max El. Az.
Max El.
End time (UTC)
End Az.
4 mins2025-07-01 12:01:25.637Z195.329° SSW2025-07-01 12:03:25.637Z137.251° SSE22.008°2025-07-01 12:05:25.637Z93.398° ESE
4 mins2025-07-01 13:37:25.637Z264.774° W2025-07-01 13:39:25.637Z40.618° NE40.157°2025-07-01 13:41:25.637Z68.525° E
4 mins2025-07-01 16:50:25.637Z285.601° WNW2025-07-01 16:51:25.637Z257.127° W44.63°2025-07-01 16:54:25.637Z111.181° ESE
|